STARLINK-36770

Last updated on Mon Mar 23 2026 00:02:07 GMT+0000 (Coordinated Universal Time)

1 67870U 26034W 26080.91724097 .00372166 00000+0 17972-2 0 9990 2 67870 53.1587 149.8902 0002175 71.9237 288.2022 15.81015526 5874
UTC large
Height (km)
Speed (km/s)
/
Latitude / Longitude
Inclination (degrees)
Orbital Period (minutes)
Azimuth
Elevation
Range (km)
Doppler Factor

Next 0 passes for location: London (51.5072 / 0.1276)

Sorry there are no passes over London.